TIME,�Ζ��t�@���q�[�^�[�[-���� [L],�t���O,�Ζ��t�@���q�[�^�[-���� [MJ/h],�t���O
2004/11/1 0:00,0,0,0,0
2004/11/1 0:15,0,0,0,0
2004/11/1 0:30,0,0,0,0
2004/11/1 0:45,0,0,0,0
2004/11/1 1:00,0,0,0,0
2004/11/1 1:15,0,0,0,0
2004/11/1 1:30,0,0,0,0
2004/11/1 1:45,0,0,0,0
2004/11/1 2:00,0,0,0,0
2004/11/1 2:15,0,0,0,0
2004/11/1 2:30,0,0,0,0
2004/11/1 2:45,0,0,0,0
2004/11/1 3:00,0,0,0,0
2004/11/1 3:15,0,0,0,0
2004/11/1 3:30,0,0,0,0
2004/11/1 3:45,0,0,0,0
2004/11/1 4:00,0,0,0,0
2004/11/1 4:15,0,0,0,0
2004/11/1 4:30,0,0,0,0
2004/11/1 4:45,0,0,0,0
2004/11/1 5:00,0,0,0,0
2004/11/1 5:15,0,0,0,0
2004/11/1 5:30,0,0,0,0
2004/11/1 5:45,0.003583324,0,0.526032,0
2004/11/1 6:00,0.020713569,0,3.040752,0
2004/11/1 6:15,0.015689264,0,2.303184,0
2004/11/1 6:30,0.015689264,0,2.303184,0
2004/11/1 6:45,0.015689264,0,2.303184,0
2004/11/1 7:00,0.015689264,0,2.303184,0
2004/11/1 7:15,0.015689264,0,2.303184,0
2004/11/1 7:30,0.015689264,0,2.303184,0
2004/11/1 7:45,0.015689264,0,2.303184,0
2004/11/1 8:00,0.015693515,0,2.303808,0
2004/11/1 8:15,0.015689264,0,2.303184,0
2004/11/1 8:30,0.032220163,0,4.72992,0
2004/11/1 8:45,0,0,0,0
2004/11/1 9:00,0,0,0,0
2004/11/1 9:15,0,0,0,0
2004/11/1 9:30,0,0,0,0
2004/11/1 9:45,0,0,0,0
2004/11/1 10:00,0,0,0,0
2004/11/1 10:15,0,0,0,0
2004/11/1 10:30,0,0,0,0
2004/11/1 10:45,0,0,0,0
2004/11/1 11:00,0,0,0,0
2004/11/1 11:15,0,0,0,0
2004/11/1 11:30,0,0,0,0
2004/11/1 11:45,0,0,0,0
2004/11/1 12:00,0,0,0,0
2004/11/1 12:15,0,0,0,0
2004/11/1 12:30,0,0,0,0
2004/11/1 12:45,0,0,0,0
2004/11/1 13:00,0,0,0,0
2004/11/1 13:15,0,0,0,0
2004/11/1 13:30,0,0,0,0
2004/11/1 13:45,0,0,0,0
2004/11/1 14:00,0,0,0,0
2004/11/1 14:15,0,0,0,0
2004/11/1 14:30,0,0,0,0
2004/11/1 14:45,0,0,0,0
2004/11/1 15:00,0,0,0,0
2004/11/1 15:15,0,0,0,0
2004/11/1 15:30,0.008390845,0,1.231776,0
2004/11/1 15:45,0.01697297,0,2.491632,0
2004/11/1 16:00,0.030375368,0,4.459104,0
2004/11/1 16:15,0,0,0,0
2004/11/1 16:30,0,0,0,0
2004/11/1 16:45,0,0,0,0
2004/11/1 17:00,0,0,0,0
2004/11/1 17:15,0,0,0,0
2004/11/1 17:30,0,0,0,0
2004/11/1 17:45,0,0,0,0
2004/11/1 18:00,0,0,0,0
2004/11/1 18:15,0,0,0,0
2004/11/1 18:30,0,0,0,0
2004/11/1 18:45,0,0,0,0
2004/11/1 19:00,0,0,0,0
2004/11/1 19:15,0,0,0,0
2004/11/1 19:30,0,0,0,0
2004/11/1 19:45,0.02646049,0,3.8844,0
2004/11/1 20:00,0,0,0,0
2004/11/1 20:15,0,0,0,0
2004/11/1 20:30,0,0,0,0
2004/11/1 20:45,0,0,0,0
2004/11/1 21:00,0,0,0,0
2004/11/1 21:15,0.016441635,0,2.413632,0
2004/11/1 21:30,0.015689264,0,2.303184,0
2004/11/1 21:45,0.015689264,0,2.303184,0
2004/11/1 22:00,0.015693515,0,2.303808,0
2004/11/1 22:15,0.015689264,0,2.303184,0
2004/11/1 22:30,0.015689264,0,2.303184,0
2004/11/1 22:45,0.015689264,0,2.303184,0
2004/11/1 23:00,0.015689264,0,2.303184,0
2004/11/1 23:15,0.023157711,0,3.399552,0
2004/11/1 23:30,0,0,0,0
2004/11/1 23:45,0,0,0,0
2004/11/2 0:00,0,0,0,0
2004/11/2 0:15,0,0,0,0
2004/11/2 0:30,0,0,0,0
2004/11/2 0:45,0,0,0,0
2004/11/2 1:00,0,0,0,0
2004/11/2 1:15,0,0,0,0
2004/11/2 1:30,0,0,0,0
2004/11/2 1:45,0,0,0,0
2004/11/2 2:00,0,0,0,0
2004/11/2 2:15,0,0,0,0
2004/11/2 2:30,0,0,0,0
2004/11/2 2:45,0,0,0,0
2004/11/2 3:00,0,0,0,0
2004/11/2 3:15,0,0,0,0
2004/11/2 3:30,0,0,0,0
2004/11/2 3:45,0,0,0,0
2004/11/2 4:00,0,0,0,0
2004/11/2 4:15,0,0,0,0
2004/11/2 4:30,0,0,0,0
2004/11/2 4:45,0,0,0,0
2004/11/2 5:00,0,0,0,0
2004/11/2 5:15,0,0,0,0
2004/11/2 5:30,0,0,0,0
2004/11/2 5:45,0.015982561,0,2.34624,0
2004/11/2 6:00,0.015689264,0,2.303184,0
2004/11/2 6:15,0.015689264,0,2.303184,0
2004/11/2 6:30,0.015689264,0,2.303184,0
2004/11/2 6:45,0.015689264,0,2.303184,0
2004/11/2 7:00,0.015689264,0,2.303184,0
2004/11/2 7:15,0.015693515,0,2.303808,0
2004/11/2 7:30,0.022928174,0,3.365856,0
2004/11/2 7:45,0.027106594,0,3.979248,0
2004/11/2 8:00,0.033933188,0,4.981392,0
2004/11/2 8:15,0,0,0,0
2004/11/2 8:30,0,0,0,0
2004/11/2 8:45,0,0,0,0
2004/11/2 9:00,0,0,0,0
2004/11/2 9:15,0,0,0,0
2004/11/2 9:30,0,0,0,0
2004/11/2 9:45,0,0,0,0
2004/11/2 10:00,0,0,0,0
2004/11/2 10:15,0,0,0,0
2004/11/2 10:30,0,0,0,0
2004/11/2 10:45,0,0,0,0
2004/11/2 11:00,0,0,0,0
2004/11/2 11:15,0,0,0,0
2004/11/2 11:30,0,0,0,0
2004/11/2 11:45,0,0,0,0
2004/11/2 12:00,0,0,0,0
2004/11/2 12:15,0,0,0,0
2004/11/2 12:30,0,0,0,0
2004/11/2 12:45,0,0,0,0
2004/11/2 13:00,0,0,0,0
2004/11/2 13:15,0,0,0,0
2004/11/2 13:30,0,0,0,0
2004/11/2 13:45,0,0,0,0
2004/11/2 14:00,0,0,0,0
2004/11/2 14:15,0,0,0,0
2004/11/2 14:30,0,0,0,0
2004/11/2 14:45,0,0,0,0
2004/11/2 15:00,0,0,0,0
2004/11/2 15:15,0,0,0,0
2004/11/2 15:30,0,0,0,0
2004/11/2 15:45,0,0,0,0
2004/11/2 16:00,0,0,0,0
2004/11/2 16:15,0,0,0,0
2004/11/2 16:30,0,0,0,0
2004/11/2 16:45,0,0,0,0
2004/11/2 17:00,0,0,0,0
2004/11/2 17:15,0,0,0,0
2004/11/2 17:30,0,0,0,0
2004/11/2 17:45,0,0,0,0
2004/11/2 18:00,0,0,0,0
2004/11/2 18:15,0,0,0,0
2004/11/2 18:30,0,0,0,0
2004/11/2 18:45,0,0,0,0
2004/11/2 19:00,0,0,0,0
2004/11/2 19:15,0,0,0,0
2004/11/2 19:30,0.034723815,0,5.097456,0
2004/11/2 19:45,0.063165123,0,9.27264,0
2004/11/2 20:00,0.060117384,0,8.825232,0
2004/11/2 20:15,0.042098747,0,6.180096,0
2004/11/2 20:30,0.016615913,0,2.439216,0
2004/11/2 20:45,0.015689264,0,2.303184,0
2004/11/2 21:00,0.015689264,0,2.303184,0
2004/11/2 21:15,0.015689264,0,2.303184,0
2004/11/2 21:30,0.015689264,0,2.303184,0
2004/11/2 21:45,0.015689264,0,2.303184,0
2004/11/2 22:00,0.031285014,0,4.59264,0
2004/11/2 22:15,0,0,0,0
2004/11/2 22:30,0,0,0,0
2004/11/2 22:45,0,0,0,0
2004/11/2 23:00,0,0,0,0
2004/11/2 23:15,0,0,0,0
2004/11/2 23:30,0,0,0,0
2004/11/2 23:45,0,0,0,0
2004/11/3 0:00,0,0,0,0
2004/11/3 0:15,0,0,0,0
2004/11/3 0:30,0,0,0,0
2004/11/3 0:45,0,0,0,0
2004/11/3 1:00,0,0,0,0
2004/11/3 1:15,0,0,0,0
2004/11/3 1:30,0,0,0,0
2004/11/3 1:45,0,0,0,0
2004/11/3 2:00,0,0,0,0
2004/11/3 2:15,0,0,0,0
2004/11/3 2:30,0,0,0,0
2004/11/3 2:45,0,0,0,0
2004/11/3 3:00,0,0,0,0
2004/11/3 3:15,0,0,0,0
2004/11/3 3:30,0,0,0,0
2004/11/3 3:45,0,0,0,0
2004/11/3 4:00,0,0,0,0
2004/11/3 4:15,0,0,0,0
2004/11/3 4:30,0,0,0,0
2004/11/3 4:45,0,0,0,0
2004/11/3 5:00,0,0,0,0
2004/11/3 5:15,0,0,0,0
2004/11/3 5:30,0,0,0,0
2004/11/3 5:45,0,0,0,0
2004/11/3 6:00,0,0,0,0
2004/11/3 6:15,0,0,0,0
2004/11/3 6:30,0,0,0,0
2004/11/3 6:45,0,0,0,0
2004/11/3 7:00,0,0,0,0
2004/11/3 7:15,0,0,0,0
2004/11/3 7:30,0.016764687,0,2.461056,0
2004/11/3 7:45,0.015693515,0,2.303808,0
2004/11/3 8:00,0.015689264,0,2.303184,0
2004/11/3 8:15,0.015689264,0,2.303184,0
2004/11/3 8:30,0.030422125,0,4.465968,0
2004/11/3 8:45,0,0,0,0
2004/11/3 9:00,0,0,0,0
2004/11/3 9:15,0,0,0,0
2004/11/3 9:30,0,0,0,0
2004/11/3 9:45,0,0,0,0
2004/11/3 10:00,0,0,0,0
2004/11/3 10:15,0,0,0,0
2004/11/3 10:30,0,0,0,0
2004/11/3 10:45,0,0,0,0
2004/11/3 11:00,0,0,0,0
2004/11/3 11:15,0,0,0,0
2004/11/3 11:30,0,0,0,0
2004/11/3 11:45,0,0,0,0
2004/11/3 12:00,0,0,0,0
2004/11/3 12:15,0,0,0,0
2004/11/3 12:30,0,0,0,0
2004/11/3 12:45,0,0,0,0
2004/11/3 13:00,0,0,0,0
2004/11/3 13:15,0,0,0,0
2004/11/3 13:30,0,0,0,0
2004/11/3 13:45,0,0,0,0
2004/11/3 14:00,0,0,0,0
2004/11/3 14:15,0,0,0,0
2004/11/3 14:30,0,0,0,0
2004/11/3 14:45,0,0,0,0
2004/11/3 15:00,0,0,0,0
2004/11/3 15:15,0,0,0,0
2004/11/3 15:30,0,0,0,0
2004/11/3 15:45,0,0,0,0
2004/11/3 16:00,0,0,0,0
2004/11/3 16:15,0,0,0,0
2004/11/3 16:30,0,0,0,0
2004/11/3 16:45,0,0,0,0
2004/11/3 17:00,0,0,0,0
2004/11/3 17:15,0.011736131,0,1.722864,0
2004/11/3 17:30,0.015689264,0,2.303184,0
2004/11/3 17:45,0.015689264,0,2.303184,0
2004/11/3 18:00,0.015689264,0,2.303184,0
2004/11/3 18:15,0.015689264,0,2.303184,0
2004/11/3 18:30,0.015689264,0,2.303184,0
2004/11/3 18:45,0.015689264,0,2.303184,0
2004/11/3 19:00,0.015689264,0,2.303184,0
2004/11/3 19:15,0.015689264,0,2.303184,0
2004/11/3 19:30,0.015693515,0,2.303808,0
2004/11/3 19:45,0.015689264,0,2.303184,0
2004/11/3 20:00,0.015689264,0,2.303184,0
2004/11/3 20:15,0.015689264,0,2.303184,0
2004/11/3 20:30,0.015689264,0,2.303184,0
2004/11/3 20:45,0.015689264,0,2.303184,0
2004/11/3 21:00,0.015689264,0,2.303184,0
2004/11/3 21:15,0.015689264,0,2.303184,0
2004/11/3 21:30,0.015689264,0,2.303184,0
2004/11/3 21:45,0.015689264,0,2.303184,0
2004/11/3 22:00,0.036028774,0,5.289024,0
2004/11/3 22:15,0,0,0,0
2004/11/3 22:30,0,0,0,0
2004/11/3 22:45,0,0,0,0
2004/11/3 23:00,0,0,0,0
2004/11/3 23:15,0,0,0,0
2004/11/3 23:30,0,0,0,0
2004/11/3 23:45,0,0,0,0
2004/11/4 0:00,0,0,0,0
2004/11/4 0:15,0,0,0,0
2004/11/4 0:30,0,0,0,0
2004/11/4 0:45,0,0,0,0
2004/11/4 1:00,0,0,0,0
2004/11/4 1:15,0,0,0,0
2004/11/4 1:30,0,0,0,0
2004/11/4 1:45,0,0,0,0
2004/11/4 2:00,0,0,0,0
2004/11/4 2:15,0,0,0,0
2004/11/4 2:30,0,0,0,0
2004/11/4 2:45,0,0,0,0
2004/11/4 3:00,0,0,0,0
2004/11/4 3:15,0,0,0,0
2004/11/4 3:30,0,0,0,0
2004/11/4 3:45,0,0,0,0
2004/11/4 4:00,0,0,0,0
2004/11/4 4:15,0,0,0,0
2004/11/4 4:30,0,0,0,0
2004/11/4 4:45,0,0,0,0
2004/11/4 5:00,0,0,0,0
2004/11/4 5:15,0,0,0,0
2004/11/4 5:30,0,0,0,0
2004/11/4 5:45,0,0,0,0
2004/11/4 6:00,0,0,0,0
2004/11/4 6:15,0,0,0,0
2004/11/4 6:30,0.011570354,0,1.698528,0
2004/11/4 6:45,0.015689264,0,2.303184,0
2004/11/4 7:00,0.015689264,0,2.303184,0
2004/11/4 7:15,0.015689264,0,2.303184,0
2004/11/4 7:30,0.015689264,0,2.303184,0
2004/11/4 7:45,0.015693515,0,2.303808,0
2004/11/4 8:00,0.015744523,0,2.311296,0
2004/11/4 8:15,0.027272371,0,4.003584,0
2004/11/4 8:30,0,0,0,0
2004/11/4 8:45,0,0,0,0
2004/11/4 9:00,0,0,0,0
2004/11/4 9:15,0,0,0,0
2004/11/4 9:30,0,0,0,0
2004/11/4 9:45,0,0,0,0
2004/11/4 10:00,0,0,0,0
2004/11/4 10:15,0,0,0,0
2004/11/4 10:30,0,0,0,0
2004/11/4 10:45,0,0,0,0
2004/11/4 11:00,0.014907139,0,2.188368,0
2004/11/4 11:15,0.015689264,0,2.303184,0
2004/11/4 11:30,0.015689264,0,2.303184,0
2004/11/4 11:45,0.015689264,0,2.303184,0
2004/11/4 12:00,0.015689264,0,2.303184,0
2004/11/4 12:15,0.015689264,0,2.303184,0
2004/11/4 12:30,0.015689264,0,2.303184,0
2004/11/4 12:45,0.024687956,0,3.624192,0
2004/11/4 13:00,0,0,0,0
2004/11/4 13:15,0,0,0,0
2004/11/4 13:30,0,0,0,0
2004/11/4 13:45,0,0,0,0
2004/11/4 14:00,0,0,0,0
2004/11/4 14:15,0,0,0,0
2004/11/4 14:30,0,0,0,0
2004/11/4 14:45,0,0,0,0
2004/11/4 15:00,0,0,0,0
2004/11/4 15:15,0,0,0,0
2004/11/4 15:30,0,0,0,0
2004/11/4 15:45,0,0,0,0
2004/11/4 16:00,0,0,0,0
2004/11/4 16:15,0,0,0,0
2004/11/4 16:30,0,0,0,0
2004/11/4 16:45,0,0,0,0
2004/11/4 17:00,0,0,0,0
2004/11/4 17:15,0,0,0,0
2004/11/4 17:30,0,0,0,0
2004/11/4 17:45,0,0,0,0
2004/11/4 18:00,0,0,0,0
2004/11/4 18:15,0.022592371,0,3.31656,0
2004/11/4 18:30,0.015697766,0,2.304432,0
2004/11/4 18:45,0.015706267,0,2.30568,0
2004/11/4 19:00,0.015689264,0,2.303184,0
2004/11/4 19:15,0.023263978,0,3.415152,0
2004/11/4 19:30,0.015689264,0,2.303184,0
2004/11/4 19:45,0.015689264,0,2.303184,0
2004/11/4 20:00,0.015689264,0,2.303184,0
2004/11/4 20:15,0.015689264,0,2.303184,0
2004/11/4 20:30,0.015689264,0,2.303184,0
2004/11/4 20:45,0.015689264,0,2.303184,0
2004/11/4 21:00,0.015689264,0,2.303184,0
2004/11/4 21:15,0.015689264,0,2.303184,0
2004/11/4 21:30,0.015706267,0,2.30568,0
2004/11/4 21:45,0.015706267,0,2.30568,0
2004/11/4 22:00,0.015697766,0,2.304432,0
2004/11/4 22:15,0.029584741,0,4.34304,0
2004/11/4 22:30,0,0,0,0
2004/11/4 22:45,0,0,0,0
2004/11/4 23:00,0,0,0,0
2004/11/4 23:15,0,0,0,0
2004/11/4 23:30,0,0,0,0
2004/11/4 23:45,0,0,0,0
2004/11/5 0:00,0,0,0,0
2004/11/5 0:15,0,0,0,0
2004/11/5 0:30,0,0,0,0
2004/11/5 0:45,0,0,0,0
2004/11/5 1:00,0,0,0,0
2004/11/5 1:15,0,0,0,0
2004/11/5 1:30,0,0,0,0
2004/11/5 1:45,0,0,0,0
2004/11/5 2:00,0,0,0,0
2004/11/5 2:15,0,0,0,0
2004/11/5 2:30,0,0,0,0
2004/11/5 2:45,0,0,0,0
2004/11/5 3:00,0,0,0,0
2004/11/5 3:15,0,0,0,0
2004/11/5 3:30,0,0,0,0
2004/11/5 3:45,0,0,0,0
2004/11/5 4:00,0,0,0,0
2004/11/5 4:15,0,0,0,0
2004/11/5 4:30,0,0,0,0
2004/11/5 4:45,0,0,0,0
2004/11/5 5:00,0,0,0,0
2004/11/5 5:15,0,0,0,0
2004/11/5 5:30,0,0,0,0
2004/11/5 5:45,0,0,0,0
2004/11/5 6:00,0,0,0,0
2004/11/5 6:15,0,0,0,0
2004/11/5 6:30,0,0,0,0
2004/11/5 6:45,0,0,0,0
2004/11/5 7:00,0,0,0,0
2004/11/5 7:15,0.012445995,0,1.827072,0
2004/11/5 7:30,0.015689264,0,2.303184,0
2004/11/5 7:45,0.015689264,0,2.303184,0
2004/11/5 8:00,0.015689264,0,2.303184,0
2004/11/5 8:15,0.015706267,0,2.30568,0
2004/11/5 8:30,0.033741907,0,4.953312,0
2004/11/5 8:45,0,0,0,0
2004/11/5 9:00,0,0,0,0
2004/11/5 9:15,0,0,0,0
2004/11/5 9:30,0,0,0,0
2004/11/5 9:45,0,0,0,0
2004/11/5 10:00,0,0,0,0
2004/11/5 10:15,0,0,0,0
2004/11/5 10:30,0,0,0,0
2004/11/5 10:45,0,0,0,0
2004/11/5 11:00,0,0,0,0
2004/11/5 11:15,0,0,0,0
2004/11/5 11:30,0,0,0,0
2004/11/5 11:45,0,0,0,0
2004/11/5 12:00,0,0,0,0
2004/11/5 12:15,0,0,0,0
2004/11/5 12:30,0,0,0,0
2004/11/5 12:45,0,0,0,0
2004/11/5 13:00,0,0,0,0
2004/11/5 13:15,0,0,0,0
2004/11/5 13:30,0,0,0,0
2004/11/5 13:45,0,0,0,0
2004/11/5 14:00,0,0,0,0
2004/11/5 14:15,0,0,0,0
2004/11/5 14:30,0,0,0,0
2004/11/5 14:45,0,0,0,0
2004/11/5 15:00,0,0,0,0
2004/11/5 15:15,0,0,0,0
2004/11/5 15:30,0,0,0,0
2004/11/5 15:45,0,0,0,0
2004/11/5 16:00,0,0,0,0
2004/11/5 16:15,0,0,0,0
2004/11/5 16:30,0,0,0,0
2004/11/5 16:45,0,0,0,0
2004/11/5 17:00,0,0,0,0
2004/11/5 17:15,0,0,0,0
2004/11/5 17:30,0,0,0,0
2004/11/5 17:45,0,0,0,0
2004/11/5 18:00,0,0,0,0
2004/11/5 18:15,0,0,0,0
2004/11/5 18:30,0,0,0,0
2004/11/5 18:45,0,0,0,0
2004/11/5 19:00,0,0,0,0
2004/11/5 19:15,0,0,0,0
2004/11/5 19:30,0.00299248,0,0.439296,0
2004/11/5 19:45,0.021202398,0,3.112512,0
2004/11/5 20:00,0.015706267,0,2.30568,0
2004/11/5 20:15,0.015693515,0,2.303808,0
2004/11/5 20:30,0.015697766,0,2.304432,0
2004/11/5 20:45,0.015706267,0,2.30568,0
2004/11/5 21:00,0.015697766,0,2.304432,0
2004/11/5 21:15,0.015697766,0,2.304432,0
2004/11/5 21:30,0.015689264,0,2.303184,0
2004/11/5 21:45,0.015689264,0,2.303184,0
2004/11/5 22:00,0.015697766,0,2.304432,0
2004/11/5 22:15,0.015689264,0,2.303184,0
2004/11/5 22:30,0.015689264,0,2.303184,0
2004/11/5 22:45,0.015689264,0,2.303184,0
2004/11/5 23:00,0.015689264,0,2.303184,0
2004/11/5 23:15,0.015689264,0,2.303184,0
2004/11/5 23:30,0.027982234,0,4.107792,0
2004/11/5 23:45,0,0,0,0
2004/11/6 0:00,0,0,0,0
2004/11/6 0:15,0,0,0,0
2004/11/6 0:30,0,0,0,0
2004/11/6 0:45,0,0,0,0
2004/11/6 1:00,0,0,0,0
2004/11/6 1:15,0,0,0,0
2004/11/6 1:30,0,0,0,0
2004/11/6 1:45,0,0,0,0
2004/11/6 2:00,0,0,0,0
2004/11/6 2:15,0,0,0,0
2004/11/6 2:30,0,0,0,0
2004/11/6 2:45,0,0,0,0
2004/11/6 3:00,0,0,0,0
2004/11/6 3:15,0,0,0,0
2004/11/6 3:30,0,0,0,0
2004/11/6 3:45,0,0,0,0
2004/11/6 4:00,0,0,0,0
2004/11/6 4:15,0,0,0,0
2004/11/6 4:30,0,0,0,0
2004/11/6 4:45,0,0,0,0
2004/11/6 5:00,0,0,0,0
2004/11/6 5:15,0,0,0,0
2004/11/6 5:30,0,0,0,0
2004/11/6 5:45,0,0,0,0
2004/11/6 6:00,0,0,0,0
2004/11/6 6:15,0,0,0,0
2004/11/6 6:30,0,0,0,0
2004/11/6 6:45,0.012752044,0,1.872,0
2004/11/6 7:00,0.015736022,0,2.310048,0
2004/11/6 7:15,0.015702016,0,2.305056,0
2004/11/6 7:30,0.015706267,0,2.30568,0
2004/11/6 7:45,0.019833678,0,2.911584,0
2004/11/6 8:00,0.015693515,0,2.303808,0
2004/11/6 8:15,0.017393787,0,2.553408,0
2004/11/6 8:30,0.040258202,0,5.909904,0
2004/11/6 8:45,0.054931553,0,8.063952,0
2004/11/6 9:00,0.056831608,0,8.34288,0
2004/11/6 9:15,0.033899183,0,4.9764,0
2004/11/6 9:30,0,0,0,0
2004/11/6 9:45,0,0,0,0
2004/11/6 10:00,0,0,0,0
2004/11/6 10:15,0,0,0,0
2004/11/6 10:30,0,0,0,0
2004/11/6 10:45,0,0,0,0
2004/11/6 11:00,0,0,0,0
2004/11/6 11:15,0,0,0,0
2004/11/6 11:30,0,0,0,0
2004/11/6 11:45,0.000590845,0,0.086736,0
2004/11/6 12:00,0,0,0,0
2004/11/6 12:15,0,0,0,0
2004/11/6 12:30,0,0,0,0
2004/11/6 12:45,0,0,0,0
2004/11/6 13:00,0,0,0,0
2004/11/6 13:15,0,0,0,0
2004/11/6 13:30,0,0,0,0
2004/11/6 13:45,0,0,0,0
2004/11/6 14:00,0,0,0,0
2004/11/6 14:15,0,0,0,0
2004/11/6 14:30,0,0,0,0
2004/11/6 14:45,0,0,0,0
2004/11/6 15:00,0,0,0,0
2004/11/6 15:15,0,0,0,0
2004/11/6 15:30,0,0,0,0
2004/11/6 15:45,0,0,0,0
2004/11/6 16:00,0,0,0,0
2004/11/6 16:15,0,0,0,0
2004/11/6 16:30,0,0,0,0
2004/11/6 16:45,0,0,0,0
2004/11/6 17:00,0,0,0,0
2004/11/6 17:15,0,0,0,0
2004/11/6 17:30,0,0,0,0
2004/11/6 17:45,0,0,0,0
2004/11/6 18:00,0,0,0,0
2004/11/6 18:15,0,0,0,0
2004/11/6 18:30,0,0,0,0
2004/11/6 18:45,0,0,0,0
2004/11/6 19:00,0,0,0,0
2004/11/6 19:15,0,0,0,0
2004/11/6 19:30,0,0,0,0
2004/11/6 19:45,0,0,0,0
2004/11/6 20:00,0,0,0,0
2004/11/6 20:15,0,0,0,0
2004/11/6 20:30,0,0,0,0
2004/11/6 20:45,0,0,0,0
2004/11/6 21:00,0,0,0,0
2004/11/6 21:15,0,0,0,0
2004/11/6 21:30,0,0,0,0
2004/11/6 21:45,0,0,0,0
2004/11/6 22:00,0,0,0,0
2004/11/6 22:15,0,0,0,0
2004/11/6 22:30,0,0,0,0
2004/11/6 22:45,0,0,0,0
2004/11/6 23:00,0,0,0,0
2004/11/6 23:15,0,0,0,0
2004/11/6 23:30,0,0,0,0
2004/11/6 23:45,0,0,0,0
2004/11/7 0:00,0,0,0,0
2004/11/7 0:15,0,0,0,0
2004/11/7 0:30,0,0,0,0
2004/11/7 0:45,0,0,0,0
2004/11/7 1:00,0,0,0,0
2004/11/7 1:15,0,0,0,0
2004/11/7 1:30,0,0,0,0
2004/11/7 1:45,0,0,0,0
2004/11/7 2:00,0,0,0,0
2004/11/7 2:15,0,0,0,0
2004/11/7 2:30,0,0,0,0
2004/11/7 2:45,0,0,0,0
2004/11/7 3:00,0,0,0,0
2004/11/7 3:15,0,0,0,0
2004/11/7 3:30,0,0,0,0
2004/11/7 3:45,0,0,0,0
2004/11/7 4:00,0,0,0,0
2004/11/7 4:15,0,0,0,0
2004/11/7 4:30,0,0,0,0
2004/11/7 4:45,0,0,0,0
2004/11/7 5:00,0,0,0,0
2004/11/7 5:15,0,0,0,0
2004/11/7 5:30,0,0,0,0
2004/11/7 5:45,0.056376785,0,8.276112,0
2004/11/7 6:00,0.033533624,0,4.922736,0
2004/11/7 6:15,0.025657112,0,3.766464,0
2004/11/7 6:30,0.029206431,0,4.287504,0
2004/11/7 6:45,0.035174387,0,5.1636,0
2004/11/7 7:00,0.030660163,0,4.500912,0
2004/11/7 7:15,0.041516403,0,6.094608,0
2004/11/7 7:30,0,0,0,0
2004/11/7 7:45,0,0,0,0
2004/11/7 8:00,0,0,0,0
2004/11/7 8:15,0,0,0,0
2004/11/7 8:30,0,0,0,0
2004/11/7 8:45,0,0,0,0
2004/11/7 9:00,0,0,0,0
2004/11/7 9:15,0,0,0,0
2004/11/7 9:30,0,0,0,0
2004/11/7 9:45,0,0,0,0
2004/11/7 10:00,0,0,0,0
2004/11/7 10:15,0,0,0,0
2004/11/7 10:30,0,0,0,0
2004/11/7 10:45,0,0,0,0
2004/11/7 11:00,0,0,0,0
2004/11/7 11:15,0,0,0,0
2004/11/7 11:30,0,0,0,0
2004/11/7 11:45,0,0,0,0
2004/11/7 12:00,0,0,0,0
2004/11/7 12:15,0,0,0,0
2004/11/7 12:30,0,0,0,0
2004/11/7 12:45,0,0,0,0
2004/11/7 13:00,0,0,0,0
2004/11/7 13:15,0,0,0,0
2004/11/7 13:30,0,0,0,0
2004/11/7 13:45,0,0,0,0
2004/11/7 14:00,0,0,0,0
2004/11/7 14:15,0,0,0,0
2004/11/7 14:30,0,0,0,0
2004/11/7 14:45,0,0,0,0
2004/11/7 15:00,0,0,0,0
2004/11/7 15:15,0,0,0,0
2004/11/7 15:30,0,0,0,0
2004/11/7 15:45,0,0,0,0
2004/11/7 16:00,0.00468,0,0.687024,0
2004/11/7 16:15,0.023944087,0,3.514992,0
2004/11/7 16:30,0.046294169,0,6.795984,0
2004/11/7 16:45,0.044874441,0,6.587568,0
2004/11/7 17:00,0.015689264,0,2.303184,0
2004/11/7 17:15,0.015689264,0,2.303184,0
2004/11/7 17:30,0.015689264,0,2.303184,0
2004/11/7 17:45,0.015693515,0,2.303808,0
2004/11/7 18:00,0.015689264,0,2.303184,0
2004/11/7 18:15,0.015689264,0,2.303184,0
2004/11/7 18:30,0.015689264,0,2.303184,0
2004/11/7 18:45,0.015689264,0,2.303184,0
2004/11/7 19:00,0.03575248,0,5.248464,0
2004/11/7 19:15,0,0,0,0
2004/11/7 19:30,0,0,0,0
2004/11/7 19:45,0,0,0,0
2004/11/7 20:00,0,0,0,0
2004/11/7 20:15,0,0,0,0
2004/11/7 20:30,0,0,0,0
2004/11/7 20:45,0.022583869,0,3.315312,0
2004/11/7 21:00,0.015689264,0,2.303184,0
2004/11/7 21:15,0.015689264,0,2.303184,0
2004/11/7 21:30,0.015689264,0,2.303184,0
2004/11/7 21:45,0.015697766,0,2.304432,0
2004/11/7 22:00,0.015689264,0,2.303184,0
2004/11/7 22:15,0.030035313,0,4.409184,0
2004/11/7 22:30,0,0,0,0
2004/11/7 22:45,0,0,0,0
2004/11/7 23:00,0,0,0,0
2004/11/7 23:15,0,0,0,0
2004/11/7 23:30,0,0,0,0
2004/11/7 23:45,0,0,0,0
2004/11/8 0:00,0,0,0,0
2004/11/8 0:15,0,0,0,0
2004/11/8 0:30,0,0,0,0
2004/11/8 0:45,0,0,0,0
2004/11/8 1:00,0,0,0,0
2004/11/8 1:15,0,0,0,0
2004/11/8 1:30,0,0,0,0
2004/11/8 1:45,0,0,0,0
2004/11/8 2:00,0,0,0,0
2004/11/8 2:15,0,0,0,0
2004/11/8 2:30,0,0,0,0
2004/11/8 2:45,0,0,0,0
2004/11/8 3:00,0,0,0,0
2004/11/8 3:15,0,0,0,0
2004/11/8 3:30,0,0,0,0
2004/11/8 3:45,0,0,0,0
2004/11/8 4:00,0,0,0,0
2004/11/8 4:15,0,0,0,0
2004/11/8 4:30,0,0,0,0
2004/11/8 4:45,0,0,0,0
2004/11/8 5:00,0,0,0,0
2004/11/8 5:15,0,0,0,0
2004/11/8 5:30,0,0,0,0
2004/11/8 5:45,0,0,0,0
2004/11/8 6:00,0,0,0,0
2004/11/8 6:15,0,0,0,0
2004/11/8 6:30,0,0,0,0
2004/11/8 6:45,0.022855913,0,3.355248,0
2004/11/8 7:00,0.015689264,0,2.303184,0
2004/11/8 7:15,0.032398692,0,4.756128,0
2004/11/8 7:30,0.021640218,0,3.176784,0
2004/11/8 7:45,0.021623215,0,3.174288,0
2004/11/8 8:00,0.038744959,0,5.68776,0
2004/11/8 8:15,0.071615477,0,10.513152,0
2004/11/8 8:30,0.054306703,0,7.972224,0
2004/11/8 8:45,0,0,0,0
2004/11/8 9:00,0,0,0,0
2004/11/8 9:15,0,0,0,0
2004/11/8 9:30,0,0,0,0
2004/11/8 9:45,0,0,0,0
2004/11/8 10:00,0,0,0,0
2004/11/8 10:15,0,0,0,0
2004/11/8 10:30,0,0,0,0
2004/11/8 10:45,0,0,0,0
2004/11/8 11:00,0,0,0,0
2004/11/8 11:15,0,0,0,0
2004/11/8 11:30,0,0,0,0
2004/11/8 11:45,0,0,0,0
2004/11/8 12:00,0,0,0,0
2004/11/8 12:15,0,0,0,0
2004/11/8 12:30,0,0,0,0
2004/11/8 12:45,0,0,0,0
2004/11/8 13:00,0,0,0,0
2004/11/8 13:15,0,0,0,0
2004/11/8 13:30,0,0,0,0
2004/11/8 13:45,0,0,0,0
2004/11/8 14:00,0,0,0,0
2004/11/8 14:15,0,0,0,0
2004/11/8 14:30,0,0,0,0
2004/11/8 14:45,0,0,0,0
2004/11/8 15:00,0,0,0,0
2004/11/8 15:15,0,0,0,0
2004/11/8 15:30,0,0,0,0
2004/11/8 15:45,0,0,0,0
2004/11/8 16:00,0,0,0,0
2004/11/8 16:15,0,0,0,0
2004/11/8 16:30,0,0,0,0
2004/11/8 16:45,0,0,0,0
2004/11/8 17:00,0,0,0,0
2004/11/8 17:15,0,0,0,0
2004/11/8 17:30,0,0,0,0
2004/11/8 17:45,0,0,0,0
2004/11/8 18:00,0,0,0,0
2004/11/8 18:15,0,0,0,0
2004/11/8 18:30,0,0,0,0
2004/11/8 18:45,0,0,0,0
2004/11/8 19:00,0.03675564,0,5.395728,0
2004/11/8 19:15,0.021478692,0,3.153072,0
2004/11/8 19:30,0.019489373,0,2.86104,0
2004/11/8 19:45,0.046277166,0,6.793488,0
2004/11/8 20:00,0.022996185,0,3.37584,0
2004/11/8 20:15,0.015689264,0,2.303184,0
2004/11/8 20:30,0.015689264,0,2.303184,0
2004/11/8 20:45,0.015689264,0,2.303184,0
2004/11/8 21:00,0.015689264,0,2.303184,0
2004/11/8 21:15,0.015689264,0,2.303184,0
2004/11/8 21:30,0.031714332,0,4.655664,0
2004/11/8 21:45,0.030910954,0,4.537728,0
2004/11/8 22:00,0.027382888,0,4.019808,0
2004/11/8 22:15,0.024751717,0,3.633552,0
2004/11/8 22:30,0.022953678,0,3.3696,0
2004/11/8 22:45,0.020012207,0,2.937792,0
2004/11/8 23:00,0.031531553,0,4.628832,0
2004/11/8 23:15,0,0,0,0
2004/11/8 23:30,0,0,0,0
2004/11/8 23:45,0,0,0,0
2004/11/9 0:00,0,0,0,0
2004/11/9 0:15,0,0,0,0
2004/11/9 0:30,0,0,0,0
2004/11/9 0:45,0,0,0,0
2004/11/9 1:00,0,0,0,0
2004/11/9 1:15,0,0,0,0
2004/11/9 1:30,0,0,0,0
2004/11/9 1:45,0,0,0,0
2004/11/9 2:00,0,0,0,0
2004/11/9 2:15,0,0,0,0
2004/11/9 2:30,0,0,0,0
2004/11/9 2:45,0,0,0,0
2004/11/9 3:00,0,0,0,0
2004/11/9 3:15,0,0,0,0
2004/11/9 3:30,0,0,0,0
2004/11/9 3:45,0,0,0,0
2004/11/9 4:00,0,0,0,0
2004/11/9 4:15,0,0,0,0
2004/11/9 4:30,0,0,0,0
2004/11/9 4:45,0,0,0,0
2004/11/9 5:00,0,0,0,0
2004/11/9 5:15,0,0,0,0
2004/11/9 5:30,0,0,0,0
2004/11/9 5:45,0,0,0,0
2004/11/9 6:00,0,0,0,0
2004/11/9 6:15,0.031289264,0,4.593264,0
2004/11/9 6:30,0.03188436,0,4.680624,0
2004/11/9 6:45,0.043373951,0,6.367296,0
2004/11/9 7:00,0.024454169,0,3.589872,0
2004/11/9 7:15,0.049061362,0,7.202208,0
2004/11/9 7:30,0.039743869,0,5.8344,0
2004/11/9 7:45,0.053371553,0,7.834944,0
2004/11/9 8:00,0.047365341,0,6.953232,0
2004/11/9 8:15,0.04199248,0,6.164496,0
2004/11/9 8:30,0,0,0,0
2004/11/9 8:45,0,0,0,0
2004/11/9 9:00,0,0,0,0
2004/11/9 9:15,0,0,0,0
2004/11/9 9:30,0,0,0,0
2004/11/9 9:45,0,0,0,0
2004/11/9 10:00,0,0,0,0
2004/11/9 10:15,0,0,0,0
2004/11/9 10:30,0,0,0,0
2004/11/9 10:45,0,0,0,0
2004/11/9 11:00,0,0,0,0
2004/11/9 11:15,0,0,0,0
2004/11/9 11:30,0,0,0,0
2004/11/9 11:45,0,0,0,0
2004/11/9 12:00,0,0,0,0
2004/11/9 12:15,0,0,0,0
2004/11/9 12:30,0,0,0,0
2004/11/9 12:45,0,0,0,0
2004/11/9 13:00,0,0,0,0
2004/11/9 13:15,0,0,0,0
2004/11/9 13:30,0,0,0,0
2004/11/9 13:45,0,0,0,0
2004/11/9 14:00,0,0,0,0
2004/11/9 14:15,0,0,0,0
2004/11/9 14:30,0,0,0,0
2004/11/9 14:45,0,0,0,0
2004/11/9 15:00,0,0,0,0
2004/11/9 15:15,0,0,0,0
2004/11/9 15:30,0.016267357,0,2.388048,0
2004/11/9 15:45,0.060516948,0,8.883888,0
2004/11/9 16:00,0.062472262,0,9.170928,0
2004/11/9 16:15,0.030239346,0,4.439136,0